• In Hungary
  • List of Countries
  • For 7 days
  • Water Temperature
  • Satellite Maps
  • Weather Map
  • News
  • Weather Widgets
  • user-avatar
    Login

    Hourly Weather Dziecioly

    Today, 23 October, Tuesday

    Time Temperature Precipitation Wind Pressure Humidity
    00:00 +5°C° 0 mm 4 mps 755 mmHg 85%
    01:00 +4°C° 0 mm 3 mps 755 mmHg 87%
    02:00 +4°C° 0 mm 4 mps 755 mmHg 87%
    03:00 +4°C° 0 mm 4 mps 754 mmHg 88%
    04:00 +4°C° 0 mm 4 mps 753 mmHg 88%
    05:00 +3°C° 0 mm 5 mps 753 mmHg 85%
    06:00 +3°C° 0 mm 6 mps 752 mmHg 82%
    07:00 +3°C° 0 mm 6 mps 751 mmHg 80%
    08:00 +4°C° 0 mm 7 mps 750 mmHg 75%
    09:00 +5°C° 0 mm 8 mps 749 mmHg 70%
    10:00 +6°C° 0 mm 9 mps 748 mmHg 66%
    11:00 +6°C° 1 mm 10 mps 746 mmHg 69%
    12:00 +6°C° 1 mm 10 mps 745 mmHg 73%
    13:00 +6°C° 1 mm 11 mps 744 mmHg 76%
    14:00 +6°C° 0.7 mm 11 mps 743 mmHg 77%
    15:00 +7°C° 0.7 mm 11 mps 742 mmHg 78%
    16:00 +7°C° 0.7 mm 12 mps 740 mmHg 79%
    17:00 +8°C° 1.1 mm 11 mps 740 mmHg 81%
    18:00 +8°C° 1.1 mm 11 mps 739 mmHg 83%
    19:00 +9°C° 1.1 mm 11 mps 738 mmHg 85%
    20:00 +9°C° 1.6 mm 10 mps 738 mmHg 84%
    21:00 +8°C° 1.6 mm 10 mps 738 mmHg 82%
    22:00 +8°C° 1.6 mm 9 mps 737 mmHg 81%
    23:00 +8°C° 0.5 mm 9 mps 737 mmHg 80%

    Tomorrow, 24 October, Wednesday

    Time Temperature Precipitation Wind Pressure Humidity
    00:00 +7°C° 0.5 mm 9 mps 737 mmHg 79%
    01:00 +7°C° 0.5 mm 9 mps 736 mmHg 77%
    02:00 +7°C° 0.3 mm 10 mps 736 mmHg 75%
    03:00 +6°C° 0.3 mm 10 mps 737 mmHg 73%
    04:00 +6°C° 0.3 mm 11 mps 737 mmHg 71%
    05:00 +5°C° 0.2 mm 10 mps 737 mmHg 69%
    06:00 +5°C° 0.2 mm 9 mps 738 mmHg 68%
    07:00 +3°C° 0.2 mm 9 mps 739 mmHg 66%
    08:00 +5°C° 0.1 mm 10 mps 740 mmHg 60%
    09:00 +5°C° 0.1 mm 10 mps 740 mmHg 53%
    10:00 +6°C° 0.1 mm 11 mps 741 mmHg 47%
    11:00 +6°C° 0 mm 11 mps 742 mmHg 45%
    12:00 +6°C° 0 mm 11 mps 742 mmHg 44%
    13:00 +7°C° 0 mm 11 mps 742 mmHg 42%
    14:00 +6°C° 0 mm 10 mps 743 mmHg 43%
    15:00 +6°C° 0 mm 9 mps 744 mmHg 44%
    16:00 +6°C° 0 mm 8 mps 744 mmHg 45%
    17:00 +5°C° 0 mm 8 mps 745 mmHg 47%
    18:00 +5°C° 0 mm 7 mps 745 mmHg 49%
    19:00 +4°C° 0 mm 7 mps 746 mmHg 51%
    20:00 +4°C° 0 mm 6 mps 746 mmHg 55%
    21:00 +3°C° 0 mm 6 mps 747 mmHg 58%
    22:00 +3°C° 0 mm 6 mps 747 mmHg 62%
    23:00 +3°C° 0 mm 6 mps 747 mmHg 65%

    Day after tomorrow, 25 October, Thursday

    Time Temperature Precipitation Wind Pressure Humidity
    00:00 +3°C° 0 mm 6 mps 747 mmHg 68%
    01:00 +2°C° 0 mm 5 mps 747 mmHg 71%
    02:00 +3°C° 0 mm 5 mps 746 mmHg 72%
    03:00 +3°C° 0 mm 5 mps 746 mmHg 73%
    04:00 +3°C° 0 mm 5 mps 746 mmHg 75%
    05:00 +3°C° 0.6 mm 5 mps 745 mmHg 80%
    06:00 +5°C° 0.6 mm 5 mps 744 mmHg 85%
    07:00 +5°C° 0.6 mm 5 mps 743 mmHg 90%
    08:00 +6°C° 0.8 mm 7 mps 742 mmHg 89%
    09:00 +7°C° 0.8 mm 8 mps 742 mmHg 88%
    10:00 +10°C° 0.8 mm 9 mps 741 mmHg 87%
    11:00 +10°C° 0.6 mm 9 mps 741 mmHg 86%
    12:00 +10°C° 0.6 mm 9 mps 741 mmHg 86%
    13:00 +9°C° 0.6 mm 10 mps 741 mmHg 85%
    14:00 +10°C° 0.4 mm 9 mps 741 mmHg 84%
    15:00 +10°C° 0.4 mm 9 mps 741 mmHg 84%
    16:00 +10°C° 0.4 mm 9 mps 741 mmHg 83%
    17:00 +9°C° 0.3 mm 8 mps 742 mmHg 81%
    18:00 +9°C° 0.3 mm 8 mps 742 mmHg 80%
    19:00 +9°C° 0.3 mm 7 mps 742 mmHg 78%
    20:00 +8°C° 0.1 mm 6 mps 743 mmHg 78%
    21:00 +7°C° 0.1 mm 6 mps 743 mmHg 79%
    22:00 +7°C° 0.1 mm 5 mps 743 mmHg 80%
    23:00 +6°C° 0 mm 5 mps 743 mmHg 81%

    26 October, Friday

    Time Temperature Precipitation Wind Pressure Humidity
    00:00 +6°C° 0 mm 5 mps 744 mmHg 82%
    01:00 +6°C° 0 mm 5 mps 744 mmHg 83%
    02:00 +5°C° 0 mm 5 mps 744 mmHg 84%
    03:00 +5°C° 0 mm 5 mps 744 mmHg 85%
    04:00 +5°C° 0 mm 5 mps 744 mmHg 87%
    05:00 +5°C° 0 mm 4 mps 744 mmHg 87%
    06:00 +5°C° 0 mm 4 mps 744 mmHg 86%
    07:00 +5°C° 0 mm 4 mps 744 mmHg 86%
    08:00 +6°C° 0 mm 4 mps 744 mmHg 80%
    09:00 +7°C° 0 mm 4 mps 744 mmHg 74%
    10:00 +8°C° 0 mm 5 mps 744 mmHg 68%
    11:00 +10°C° 0 mm 4 mps 744 mmHg 69%
    12:00 +10°C° 0 mm 4 mps 744 mmHg 69%
    13:00 +11°C° 0 mm 4 mps 743 mmHg 70%
    14:00 +11°C° 0 mm 4 mps 743 mmHg 72%
    15:00 +11°C° 0 mm 3 mps 742 mmHg 74%
    16:00 +11°C° 0 mm 3 mps 742 mmHg 76%
    17:00 +10°C° 0 mm 3 mps 742 mmHg 78%
    18:00 +10°C° 0 mm 4 mps 742 mmHg 80%
    19:00 +10°C° 0 mm 4 mps 741 mmHg 81%
    20:00 +8°C° 0 mm 4 mps 741 mmHg 82%
    21:00 +8°C° 0 mm 5 mps 741 mmHg 82%
    22:00 +8°C° 0 mm 5 mps 741 mmHg 82%
    23:00 +7°C° 0 mm 5 mps 740 mmHg 82%

    27 October, Saturday

    Time Temperature Precipitation Wind Pressure Humidity
    00:00 +7°C° 0 mm 5 mps 740 mmHg 83%
    01:00 +7°C° 0 mm 5 mps 740 mmHg 83%
    02:00 +7°C° 0 mm 5 mps 740 mmHg 82%
    03:00 +7°C° 0 mm 5 mps 740 mmHg 81%
    04:00 +7°C° 0 mm 5 mps 739 mmHg 80%
    05:00 +7°C° 0.1 mm 5 mps 740 mmHg 81%
    06:00 +7°C° 0.1 mm 5 mps 740 mmHg 82%
    07:00 +7°C° 0.1 mm 6 mps 740 mmHg 83%
    08:00 +7°C° 0 mm 6 mps 740 mmHg 78%
    09:00 +8°C° 0 mm 6 mps 741 mmHg 72%
    10:00 +8°C° 0 mm 7 mps 741 mmHg 67%
    11:00 +9°C° 0 mm 7 mps 741 mmHg 64%
    12:00 +9°C° 0 mm 6 mps 741 mmHg 60%
    13:00 +9°C° 0 mm 6 mps 742 mmHg 56%
    14:00 +9°C° 0 mm 5 mps 742 mmHg 58%
    15:00 +8°C° 0 mm 4 mps 742 mmHg 59%
    16:00 +9°C° 0 mm 3 mps 742 mmHg 61%
    17:00 +8°C° 0 mm 2 mps 742 mmHg 63%
    18:00 +8°C° 0 mm 2 mps 743 mmHg 65%
    19:00 +7°C° 0 mm 2 mps 743 mmHg 68%
    20:00 +7°C° 0 mm 2 mps 743 mmHg 69%
    21:00 +7°C° 0 mm 2 mps 743 mmHg 69%
    22:00 +7°C° 0 mm 1 mps 744 mmHg 70%
    23:00 +7°C° 0 mm 1 mps 744 mmHg 71%

    28 October, Sunday

    Time Temperature Precipitation Wind Pressure Humidity
    00:00 +7°C° 0 mm 1 mps 744 mmHg 71%
    01:00 +7°C° 0 mm 1 mps 744 mmHg 72%
    02:00 +7°C° 0 mm 1 mps 744 mmHg 73%
    03:00 +7°C° 0 mm 1 mps 743 mmHg 73%
    04:00 +7°C° 0 mm 1 mps 743 mmHg 74%
    05:00 +5°C° 0.1 mm 2 mps 743 mmHg 75%
    06:00 +5°C° 0.1 mm 2 mps 743 mmHg 76%
    07:00 +5°C° 0.1 mm 2 mps 743 mmHg 77%
    08:00 +6°C° 0.3 mm 2 mps 743 mmHg 76%
    09:00 +5°C° 0.3 mm 3 mps 743 mmHg 75%
    10:00 +5°C° 0.3 mm 3 mps 743 mmHg 74%
    11:00 +5°C° 0.5 mm 4 mps 743 mmHg 74%
    12:00 +5°C° 0.5 mm 4 mps 743 mmHg 74%
    13:00 +5°C° 0.5 mm 5 mps 743 mmHg 74%
    14:00 +5°C° 0.6 mm 5 mps 743 mmHg 76%
    15:00 +4°C° 0.6 mm 6 mps 742 mmHg 78%
    16:00 +3°C° 0.6 mm 6 mps 742 mmHg 79%
    17:00 +3°C° 0.7 mm 6 mps 742 mmHg 81%
    18:00 +3°C° 0.7 mm 7 mps 742 mmHg 82%
    19:00 +3°C° 0.7 mm 7 mps 742 mmHg 84%
    20:00 +2°C° 2.1 mm 8 mps 741 mmHg 84%
    21:00 +1°C° 2.1 mm 8 mps 741 mmHg 84%
    22:00 +1°C° 2.1 mm 8 mps 740 mmHg 85%
    23:00 +1°C° 2 mm 8 mps 739 mmHg 86%

    29 October, Monday

    Time Temperature Precipitation Wind Pressure Humidity
    00:00 +1°C° 2 mm 8 mps 739 mmHg 87%
    01:00 0°C° 2 mm 8 mps 738 mmHg 88%
    02:00 0°C° 1.3 mm 8 mps 737 mmHg 89%
    03:00 0°C° 1.3 mm 8 mps 737 mmHg 90%
    04:00 0°C° 1.3 mm 8 mps 736 mmHg 91%
    05:00 0°C° 1.4 mm 7 mps 736 mmHg 91%
    06:00 +1°C° 1.4 mm 6 mps 735 mmHg 92%
    07:00 +1°C° 1.4 mm 6 mps 735 mmHg 93%
    08:00 +2°C° 0.5 mm 5 mps 735 mmHg 93%
    09:00 +2°C° 0.5 mm 5 mps 734 mmHg 93%
    10:00 +2°C° 0.5 mm 5 mps 734 mmHg 93%
    11:00 +3°C° 0.4 mm 4 mps 734 mmHg 93%
    12:00 +4°C° 0.4 mm 4 mps 733 mmHg 94%
    13:00 +4°C° 0.4 mm 3 mps 733 mmHg 94%
    14:00 +5°C° 0.2 mm 3 mps 733 mmHg 94%
    15:00 +6°C° 0.2 mm 2 mps 733 mmHg 95%
    16:00 +6°C° 0.2 mm 2 mps 732 mmHg 96%
    17:00 +6°C° 0.5 mm 2 mps 732 mmHg 96%
    18:00 +6°C° 0.5 mm 2 mps 732 mmHg 96%
    19:00 +6°C° 0.5 mm 2 mps 732 mmHg 96%
    20:00 +6°C° 0.1 mm 2 mps 732 mmHg 95%
    21:00 +6°C° 0.1 mm 1 mps 732 mmHg 95%
    22:00 +6°C° 0.1 mm 1 mps 732 mmHg 95%
    23:00 +6°C° 0.1 mm 1 mps 732 mmHg 95%
    Show more